Miscellaneous Local Product
Issued by NWS North Platte, NE

Home | Current Version | Previous Version | Graphics & Text | Print | Product List | Glossary On
Versions: 1 2 3 4 5 6 7 8 9 10 11 12 13 14 15 16 17 18 19 20 21 22 23 24 25 26 27 28 29 30 31 32 33 34 35 36 37 38 39 40 41 42 43 44 45 46 47 48 49 50
000
AXUS43 KLBF 230810
MISLBF


WESTERN AND NORTH CENTRAL NEBRASKA HOURLY WEATHER ROUNDUP
NATIONAL WEATHER SERVICE NORTH PLATTE NE
300 AM CDT TUE AUG 23 2016

NOTE: "FAIR" INDICATES FEW OR NO CLOUDS BELOW 12,000 FEET WITH NO
SIGNIFICANT WEATHER AND/OR OBSTRUCTIONS TO VISIBILITY.

NOTE: STATIONS NOT REPORTING VARIABLES SUCH AS SKY/WEATHER OR
PRESSURE ARE PROVIDED BY RAWS AND APRS NETWORKS AND ARE NOT UNDER
NATIONAL WEATHER SERVICE QUALITY CONTROL.

...OBSERVATIONS IN AND NEAR THE EASTERN PANHANDLE OF NEBRASKA...

CITY           SKY/WX    TMP DP  RH WIND       PRES   REMARKS
PINE RIDGE     CLEAR     71  59  65 S20G28    29.76S
CHADRON        CLEAR     72  52  49 S12       29.75S
ALLIANCE       CLEAR     60  57  89 SE8       29.84S
SIDNEY         CLEAR     63  57  81 S8        29.88F
CRESCENT LAKE    N/A     65  59  80 S6G13       N/A
$$

...OBSERVATIONS IN NORTHERN NEBRASKA AND FAR SOUTHERN SOUTH DAKOTA...

CITY           SKY/WX    TMP DP  RH WIND       PRES   REMARKS
WINNER         FAIR      77  58  51 S28G36    29.72S
VALENTINE      CLOUDY    73  56  54 S15G28    29.78F
THEDFORD       CLEAR     71  57  61 S15G21    29.85F
AINSWORTH      CLEAR     70  57  64 S17       29.82S
O`NEILL        CLEAR     69  57  66 S14G20    29.85F
ORD            PTCLDY    69  56  62 S7        29.88S
BROKEN BOW     CLOUDY    70  56  61 S12G18    29.88F
VALENTINE NWR    N/A     70  57  63 S10         N/A
BUTTE            N/A     70  58  66 S13G20      N/A
HALSEY           N/A     71  53  53 S12G21      N/A
EWING            N/A     67  59  75 S5          N/A
$$

...OBSERVATIONS IN SOUTHWEST NEBRASKA AND FAR NORTHEAST COLORADO...

CITY           SKY/WX    TMP DP  RH WIND       PRES   REMARKS
WRAY           FAIR      66  59  77 E13       29.87S
HOLYOKE        FAIR      68  59  73 SE14G21   29.87S
IMPERIAL       PTCLDY    70  58  65 S15       29.86F
OGALLALA       CLEAR     70  59  67 S6        29.85S
NORTH PLATTE   CLOUDY    72  60  66 S20G30    29.85F
MCCOOK         TSTM      66  64  93 SE10      29.89F
LEXINGTON      LGT RAIN  69  60  74 S14G20    29.89S
STAPLETON        N/A     68  58  71 CALM        N/A
GOTHENBURG       N/A     73  53  48 S8          N/A
$$

...OBSERVATIONS IN CENTRAL LINCOLN COUNTY AREA...

CITY           SKY/WX    TMP DP  RH WIND       PRES   REMARKS
N.P. AIRPORT   CLOUDY    72  60  66 S20G30    29.85F
N.P. DOWNTOWN    N/A     72  62  71 S6G16       N/A
N.P. SOUTHEAST   N/A     71  61  70 S12G21      N/A
N.P. HILLCREST   N/A     72  62  69 S14G22      N/A
$$

...SOME OBSERVATIONS FROM AROUND THE REGION...

CITY           SKY/WX    TMP DP  RH WIND       PRES   REMARKS
DENVER         CLEAR     65  40  39 SW14      29.96S
LARAMIE        CLOUDY    50  38  63 SE9       30.11S
CHEYENNE       CLEAR     65  35  33 W15       29.99F
SCOTTSBLUFF    CLEAR     60  55  83 E8        29.84S
RAPID CITY     CLEAR     61  47  59 SE3       29.69F
BISMARCK       CLEAR     65  62  90 CALM      29.57F
PIERRE         CLEAR     74  60  61 SE10      29.66S
SIOUX FALLS    MOCLDY    70  60  70 S16G24    29.88R
OMAHA          MOCLDY    71  61  70 S15       29.96F
GRAND ISLAND   MOCLDY    68  58  70 S13       29.91F
KANSAS CITY    CLEAR     67  60  78 S10       30.04F
WICHITA        CLOUDY    72  69  90 SE10      30.00F
OKLAHOMA CITY  CLOUDY    75  72  90 S15G22    30.03F
DALLAS         MOCLDY    79  74  84 S12       30.06S
AMARILLO       CLOUDY    70  66  87 S10       30.09F
DODGE CITY     MOCLDY    71  64  78 S14G24    29.96F
HAYS           CLEAR     72  57  60 S18G24    29.92F
GOODLAND       CLEAR     67  61  81 S16       29.86F
$$




USA.gov is the U.S. government's official web portal to all federal, state and local government web resources and services.